sat.trackr.live / text

‹ back to catalog

STARLINK-4747

NORAD 53832 · 2022-114Q

PAYLOAD ACTIVE UNKNOWN

§ Identity

Operator
Country
US
Launch date
2022-09-19
Launch site
AFETR
Launch vehicle
Mass (kg)
RCS (m²)

Purposes: comms

External: N2YO · Heavens-Above · Gunter

§ Orbital elements

Epoch: 2026-09-20T08:29:24.611712Z

Period
93.85 min
Inclination
53.1611°
Eccentricity
0.0001614
Mean motion
15.34393782 rev/d
Perigee alt
461.6 km
Apogee alt
463.8 km
Semi-major
6,840.9 km
B*
3.2817e-5
RAAN
140.1434°
Arg perigee
86.1398°
Mean anomaly
273.9789°
Rev number
22,235

§ Raw data

STARLINK-47471 53832U 22114Q   26263.35375708  .00000732  00000+0  32817-4 0  99942 53832  53.1611 140.1434 0001614  86.1398 273.9789 15.34393782222358

JSON: /api/v1/satellites/53832 · /tle

For live sub-satellite position, see the globe view (requires WebGL).

§ Visibility from observer

Set your observer location to see the next 7 days of passes ≥ 10°. The values pass through the URL so the page stays shareable.

No JS? Fill the form by hand. The geolocation button needs JavaScript.